Regional Weather Roundup
Issued by NWS

Home | Current Version | Previous Version | Graphics & Text | Print | Product List | Glossary On
Versions: 1 2 3 4 5 6 7 8 9 10 11 12 13 14 15 16 17 18 19 20 21 22 23 24 25 26 27 28 29 30 31 32 33 34 35 36 37 38 39 40 41 42 43 44 45 46 47 48 49 50
042
ASUS45 KABQ 220701
RWRNM
NEW MEXICO REGIONAL WEATHER ROUNDUP
NATIONAL WEATHER SERVICE ALBUQUERQUE NM
1200 AM MST WED FEB 22 2017

NOTE: "FAIR" MEANS FEW OR NO CLOUDS BELOW 12,000 FEET AGL WITH NO
       SIGNIFICANT WEATHER OR OBSTRUCTIONS TO VISION.

      THIS PRODUCT IS RELEASED AS TWO VERSIONS.  ONE VERSION NEAR
      THE TOP OF THE HOUR CONTAINING PRELIMINARY DATA FROM ALBUQUERQUE
      AND OTHER STATIONS.  A FINAL VERSION WITH ADDITIONAL DATA IS
      ISSUED ABOUT 10 MINUTES AFTER THE HOUR.

NMZ501-503-504-510>518-220800-
NORTHWEST PLATEAU/NORTHCENTRAL MOUNTAINS

CITY           SKY/WX    TMP DP  RH WIND       PRES   REMARKS
FARMINGTON     MOCLDY    48  41  76 S5        30.15F
LOS ALAMOS     FAIR      48  25  40 NE3       30.24F
SANTA FE       FAIR      37  24  59 N5        30.21S WCI  33
TAOS             N/A     30  18  59 NW5       30.22F WCI  25
ANGEL FIRE     FAIR      35  25  67 W10       30.26F WCI  27

$$
NMZ402-403-502-505>509-220800-
WESTCENTRAL MOUNTAINS/SOUTHWEST MOUNTAINS

CITY           SKY/WX    TMP DP  RH WIND       PRES   REMARKS
GALLUP         FAIR      38  33  82 CALM      30.26F

$$
NMZ407-409-411-412-220800-
SOUTHERN DESERTS

CITY           SKY/WX    TMP DP  RH WIND       PRES   REMARKS
DEMING         FAIR      48  37  65 W6        30.21F
LAS CRUCES     FAIR      53  36  51 W13       30.20F
HOLLOMAN AFB   FAIR      49  31  50 SE7       30.19F
T OR C         FAIR      53  37  54 CALM      30.19S

$$
NMZ519>523-220800-
CENTRAL VALLEYS/CENTRAL HIGHLANDS

CITY           SKY/WX    TMP DP  RH WIND       PRES   REMARKS
ALBUQUERQUE    FAIR      50  30  46 S5        30.20F
DOUBLE EAGLE   FAIR      41  30  65 W9        30.22S
MORIARTY ARPT  FAIR      36  26  67 CALM      30.22F
CLINES CORNERS FAIR      39  24  55 W13       30.22F WCI  31
BELEN          NOT AVBL
SOCORRO        FAIR      48  36  62 CALM      30.19S

$$
NMZ524>526-539-540-220800-
SOUTHCENTRAL MOUNTAINS

CITY           SKY/WX    TMP DP  RH WIND       PRES   REMARKS
RUIDOSO        NOT AVBL

$$
NMZ527>531-220800-
NORTHEAST HIGHLANDS/NORTHEAST PLAINS

CITY           SKY/WX    TMP DP  RH WIND       PRES   REMARKS
RATON          FAIR      40   9  28 CALM      30.12F
CLAYTON        FAIR      56  14  19 W17       30.03S

$$
NMZ532>537-220800-
EASTCENTRAL PLAINS

CITY           SKY/WX    TMP DP  RH WIND       PRES   REMARKS
TUCUMCARI      FAIR      46  27  47 W10       30.03F
CANNON AFB     FAIR      51  20  30 NW7       30.08S
CLOVIS AIRPORT FAIR      54  21  28 W14       30.06S

$$
NMZ028-029-538-220800-
SOUTHEAST PLAINS

CITY           SKY/WX    TMP DP  RH WIND       PRES   REMARKS
ROSWELL        FAIR      61  30  31 NW12        N/A
CARLSBAD       FAIR      63  33  32 E3        30.06S


$$




USA.gov is the U.S. government's official web portal to all federal, state and local government web resources and services.